Home   Weather   Melilla   Past weeks
Flag for Spain

Past Weather in Melilla, Melilla, Spain — Yesterday and Last 2 Weeks

Now
63 °F

Mild.


Feels Like: 63 °F
Forecast: 69 / 53 °F
Wind: 9 mph from Southwest

Location: Melilla

Current Time: Dec 15, 2019 at 12:20:51 pm

Latest Report: Dec 15, 2019 at 11:00 am


Visibility: N/A

Pressure: 30.09 "Hg

Humidity: 70%

Dew Point: 53 °F

Location of MelillaLocation

Past Weather in Melilla — Graph

°F

Melilla Temperature Yesterday

Maximum temperature yesterday: 63 °F (at 11:00 am)
Minimum temperature yesterday: 58 °F (at 10:00 pm)
Average temperature yesterday: 60 °F

High & Low Weather Summary for the Past Weeks

 TemperatureHumidityPressure
High68 °F (Dec 1, 11:00 am)94% (Dec 3, 2:00 am)30.38 "Hg (Dec 3, 2:00 am)
Low52 °F (Dec 8, 8:00 am)42% (Dec 11, 1:00 pm)29.73 "Hg (Dec 3, 6:00 am)
Average60 °F77%30.10 "Hg
* Reported Nov 30 11:00 am — Dec 15 11:00 am, Melilla. Weather by CustomWeather, © 2019

Note: Actual official high and low records may vary slightly from our data, if they occured in-between our weather recording intervals... More about our weather records

Melilla Weather History for the Previous 24 Hours

Scroll right to see more
 ConditionsComfort  
Time TempWeatherWind HumidityBarometerVisibility
11:00 am
Sun, Dec 15
63 °FMild.9 mph70%30.09 "HgN/A
10:00 am61 °FPartly sunny.9 mph74%30.08 "Hg16 mi
9:00 am58 °FCool.8 mph78%30.07 "HgN/A
8:00 am56 °FCool.7 mph78%30.06 "HgN/A
7:00 am56 °FPassing clouds.6 mph85%30.06 "Hg9 mi
6:00 am55 °FCool.6 mph86%30.05 "HgN/A
5:00 am55 °FCool.6 mph86%30.06 "HgN/A
4:00 am56 °FCool.7 mph83%30.08 "HgN/A
3:00 am57 °FCool.7 mph83%30.09 "HgN/A
2:00 am57 °FCool.9 mph82%30.09 "HgN/A
1:00 am57 °FCool.10 mph81%30.11 "HgN/A
12:00 am58 °FCool.9 mph81%30.12 "HgN/A
11:00 pm
Sat, Dec 14
58 °FCool.8 mph79%30.12 "HgN/A
10:00 pm58 °FPassing clouds.10 mph79%30.12 "Hg12 mi
9:00 pm58 °FCool.10 mph79%30.12 "HgN/A
8:00 pm59 °FCool.10 mph81%30.12 "HgN/A
7:00 pm59 °FPassing clouds.13 mph79%30.12 "Hg16 mi
6:00 pm60 °FCool.9 mph77%30.12 "HgN/A
5:00 pm61 °FCool.7 mph76%30.11 "HgN/A
4:00 pm62 °FPartly sunny.9 mph74%30.11 "Hg16 mi
3:00 pm63 °FMild.8 mph71%30.11 "HgN/A
2:00 pm63 °FMild.8 mph71%30.13 "HgN/A
12:00 pm63 °FMild.12 mph72%30.16 "HgN/A
Weather by CustomWeather, © 2019

See weather overview

Advertising